FW7873 Weather Reports


Display with metric or nautical units.
time (UTC)temp
F
wind
direction
speed
MPH
gust
MPH
rain 1hr
in
rain 24hr
in
rain mn
in
humidity
%
barometer
mb
20260904044607 68 0 0.0 0.0 0.00 0.78 0.00 97 1016.9
20260904043104 68 0 0.0 0.0 0.00 0.78 0.00 97 1017.0
20260904041609 68 0 0.0 1.0 0.00 0.78 0.00 97 1016.9
20260904040109 68 0 0.0 0.0 0.00 0.78 0.00 97 1016.7
20260904034615 67 0 0.0 0.0 0.00 1.15 0.78 98 1016.5
20260904033102 67 0 0.0 0.0 0.00 1.15 0.78 97 1016.4
20260904032346 68 0 0.0 0.0 0.00 0.00 0.78 97 1016.6
20260904031655 68 0 0.0 0.0 0.00 0.00 0.78 97 1016.6
20260904031606 67 0 0.0 0.0 0.00 1.15 0.78 97 1016.4
20260904030105 67 0 0.0 0.0 0.00 1.15 0.78 97 1016.3
20260904024604 67 0 0.0 0.0 0.00 1.26 0.78 97 1016.1
20260904023110 67 0 0.0 0.0 0.00 1.26 0.78 97 1016.3
20260904021605 67 0 0.0 0.0 0.00 1.26 0.78 97 1016.2
20260904020106 67 0 0.0 0.0 0.00 1.26 0.78 97 1016.2
20260904014603 68 0 0.0 0.0 0.00 1.26 0.78 97 1016.3
20260904013103 68 0 0.0 0.0 0.00 1.26 0.78 97 1016.3
20260904011606 68 0 0.0 1.0 0.00 1.26 0.78 97 1016.2
20260904010103 68 0 0.0 0.0 0.00 1.26 0.78 97 1016.2
20260904004602 69 0 0.0 0.0 0.00 1.26 0.78 97 1016.0
20260904003106 69 0 0.0 0.0 0.00 1.26 0.78 97 1016.0
20260904002142 70 0 1.0 1.0 0.00 0.00 0.78 97 1015.9
20260904001605 69 0 0.0 0.0 0.00 1.26 0.78 97 1015.9
20260904000136 70 0 0.0 1.0 0.00 1.26 0.78 96 1015.8
20260903234607 70 0 0.0 1.0 0.00 1.26 0.78 97 1015.6
20260903233107 70 0 0.0 1.0 0.00 1.26 0.78 97 1015.5
20260903231607 70 0 0.0 1.0 0.00 1.26 0.78 97 1015.6
20260903230114 70 240 0.0 1.0 0.00 1.26 0.78 97 1015.6
20260903224609 70 0 0.0 2.0 0.00 1.26 0.78 97 1015.6
20260903223106 70 0 0.0 3.0 0.00 1.26 0.78 96 1015.5
20260903221604 71 182 0.0 2.0 0.00 1.26 0.78 96 1015.5
20260903221242 71 0 2.0 2.0 0.00 0.00 0.78 96 1016.6
20260903220121 71 0 0.0 2.0 0.00 1.26 0.78 96 1016.4
20260903214601 71 0 0.0 2.0 0.00 1.26 0.78 96 1016.4
20260903213107 71 0 0.0 2.0 0.00 1.26 0.78 96 1016.6
20260903211620 71 320 0.0 5.0 0.00 1.26 0.78 96 1016.3
20260903210111 70 9 0.0 2.0 0.03 1.26 0.78 96 1016.7
20260903204841 71 360 2.0 2.0 0.05 0.00 0.78 96 1016.6
20260903204559 71 360 0.0 4.0 0.05 1.26 0.78 96 1016.5
20260903203841 71 352 2.0 2.0 0.48 0.00 0.78 96 1016.3
20260903203108 70 352 1.0 5.0 0.48 1.26 0.78 96 1016.3
20260903201605 69 345 0.0 3.0 0.50 1.26 0.78 95 1016.1
20260903200105 69 51 1.0 5.0 0.48 1.23 0.75 94 1017.1
20260903195842 70 338 3.0 3.0 0.55 0.00 0.73 92 1016.9
20260903195341 70 338 2.0 2.0 0.55 0.00 0.73 92 1016.9
20260903194559 70 338 6.0 17.0 0.55 1.21 0.73 92 1017.0
20260903193106 77 84 1.0 8.0 0.12 0.78 0.30 89 1015.8
20260903192842 80 0 1.0 1.0 0.10 0.00 0.28 84 1014.2
20260903192341 80 0 1.0 1.0 0.10 0.00 0.28 84 1014.2
20260903191603 79 0 0.0 2.0 0.10 0.76 0.28 84 1014.3
20260903191341 84 124 1.0 1.0 0.09 0.00 0.27 77 1014.2
20260903190341 84 124 1.0 1.0 0.09 0.00 0.27 77 1014.2
20260903184608 85 5 0.0 3.0 0.00 0.66 0.18 70 1015.0
20260903183106 84 0 0.0 2.0 0.00 0.66 0.18 72 1014.9
20260903181604 83 122 0.0 3.0 0.00 0.66 0.18 74 1015.3
20260903180112 82 9 0.0 4.0 0.00 0.66 0.18 76 1015.1
20260903174611 82 0 0.0 3.0 0.00 0.66 0.18 79 1015.0
20260903173120 80 0 0.0 1.0 0.00 0.66 0.18 84 1015.1
20260903171604 79 0 0.0 2.0 0.00 0.66 0.18 85 1015.3
20260903170112 78 229 0.0 1.0 0.00 0.66 0.18 87 1015.1
20260903164604 75 0 1.0 3.0 0.00 0.66 0.18 94 1014.8
20260903164039 75 0 1.0 1.0 0.00 0.00 0.18 97 1015.2
20260903163116 74 0 0.0 1.0 0.00 0.66 0.18 97 1015.1
20260903162447 74 0 2.0 2.0 0.02 0.00 0.18 98 1015.6
20260903161605 73 0 0.0 2.0 0.02 0.66 0.18 98 1015.7
20260903160446 72 232 2.0 2.0 0.02 0.00 0.18 98 1015.9
20260903160104 71 232 0.0 4.0 0.02 0.66 0.18 98 1015.9
20260903155446 71 11 2.0 2.0 0.02 0.00 0.18 97 1016.3
20260903154946 71 11 2.0 2.0 0.02 0.00 0.18 97 1016.3
20260903154607 70 11 1.0 12.0 0.02 0.66 0.18 97 1016.3
20260903153446 72 0 2.0 2.0 0.04 0.00 0.18 97 1015.9
20260903153105 71 0 0.0 12.0 0.04 0.66 0.18 97 1015.9
20260903151603 74 20 3.0 11.0 0.02 0.64 0.16 98 1016.6
20260903150114 74 24 0.0 2.0 0.02 0.64 0.16 98 1016.3
20260903145946 75 0 0.0 0.0 0.02 0.00 0.16 98 1015.6
20260903144558 75 0 0.0 0.0 0.02 0.64 0.16 98 1015.6
20260903143946 75 147 0.0 0.0 0.00 0.00 0.14 98 1016.3
20260903143106 75 147 0.0 2.0 0.00 0.62 0.14 98 1016.3
20260903142446 76 0 0.0 0.0 0.00 0.00 0.14 98 1016.3
20260903141604 75 0 0.0 0.0 0.00 0.62 0.14 98 1016.1
20260903141447 76 0 0.0 0.0 0.00 0.00 0.14 98 1015.6
20260903140105 75 0 0.0 0.0 0.00 0.62 0.14 98 1015.7
20260903134606 75 0 0.0 0.0 0.00 0.62 0.14 98 1015.6
20260903133106 75 0 0.0 0.0 0.00 0.62 0.14 98 1015.8
20260903131606 74 0 0.0 1.0 0.00 0.62 0.14 98 1015.9
20260903130117 73 0 0.0 0.0 0.00 0.62 0.14 98 1015.8
20260903124620 72 0 0.0 0.0 0.00 0.62 0.14 98 1015.9
20260903123104 71 0 0.0 0.0 0.00 0.62 0.14 98 1015.9
20260903121609 70 0 0.0 0.0 0.00 0.62 0.14 98 1015.9
20260903120107 70 0 0.0 0.0 0.00 0.62 0.14 97 1016.0
20260903114609 69 0 0.0 0.0 0.00 0.62 0.14 97 1016.0
20260903113105 69 0 0.0 0.0 0.00 0.62 0.14 97 1016.0
20260903111626 69 0 0.0 0.0 0.00 0.62 0.14 97 1015.7
20260903110114 69 0 0.0 0.0 0.00 0.62 0.14 97 1015.7
20260903104633 69 0 0.0 0.0 0.00 0.62 0.14 97 1015.6
20260903103106 69 0 0.0 0.0 0.00 0.62 0.14 97 1015.6
20260903101602 69 0 0.0 0.0 0.00 0.62 0.14 97 1015.5
20260903100103 69 0 0.0 0.0 0.00 0.62 0.14 97 1015.5
20260903094609 69 0 0.0 0.0 0.00 0.62 0.14 97 1015.4
20260903093104 69 0 0.0 0.0 0.00 0.62 0.14 97 1015.4
20260903091603 69 0 0.0 0.0 0.00 0.62 0.14 97 1015.4
20260903090107 69 0 0.0 0.0 0.00 0.62 0.14 97 1015.2
20260903084604 69 0 0.0 0.0 0.00 0.62 0.14 97 1015.1
20260903083101 69 0 0.0 0.0 0.00 0.62 0.14 97 1015.2
20260903081605 69 0 0.0 0.0 0.00 0.62 0.14 96 1015.1
20260903080103 69 0 0.0 0.0 0.01 0.62 0.14 97 1015.3
20260903074609 69 0 0.0 0.0 0.14 0.62 0.14 96 1015.2
20260903073111 69 0 0.0 1.0 0.14 0.62 0.14 96 1015.2
20260903071607 68 0 0.0 1.0 0.14 0.62 0.14 96 1015.3
20260903070105 70 22 3.0 14.0 0.13 0.61 0.13 95 1015.4
20260903064559 72 0 0.0 0.0 0.00 0.48 0.00 96 1015.1
20260903063105 72 0 0.0 0.0 0.00 0.48 0.00 96 1015.2
20260903061612 72 0 0.0 0.0 0.00 0.48 0.00 96 1015.1
20260903060106 72 0 0.0 0.0 0.00 0.48 0.00 96 1015.2
20260903054602 72 0 0.0 0.0 0.00 0.48 0.00 96 1015.3
20260903053114 72 0 0.0 0.0 0.00 0.48 0.00 96 1015.1
20260903051606 71 0 0.0 0.0 0.00 0.48 0.00 95 1015.1
20260903050107 71 0 0.0 0.0 0.00 0.48 0.00 95 1015.1